Tracking 35275 objects as of 8-Sep-2026
HD Live streaming from Space Station
objects crossing your sky now

GEESAT 1-01

Track GEESAT 1-01 now!
10-day predictions


NORAD ID: 52785
Int'l Code: 2022-058A
Launch date: June 2, 2022
Source: People's Republic of China (PRC)
Launch site: Xichang Space Center, China (XSC)
Your satellite tracking list
Your tracking list is empty




NASA's NSSDC Master Catalog

Two Line Element Set (TLE):
1 52785U 22058A   26250.88280019  .00000991  00000-0  15293-3 0  9997
2 52785  49.9933 180.5009 0021871 219.0534 140.8825 14.81573577232195
Source of the keplerian elements: AFSPC